Weather History for Sterling Muni, Sterling, CO, CO

Change the Weather History Date:

Friday, March 28, 2014

  Actual Average Record
Temperature  
Mean Temperature 44 °F -  
Max Temperature 57 °F 58 °F 57 °F (2014)
Min Temperature 32 °F 30 °F 32 °F (2014)
Degree Days  
Heating Degree Days 20    
Moisture  
Dew Point 31 °F    
Average Humidity 66    
Maximum Humidity 100    
Minimum Humidity 31    
Precipitation  
Precipitation 0.00 in - - ()
Sea Level Pressure  
Sea Level Pressure 29.99 in    
Wind  
Wind Speed 10 mph (WNW)    
Max Wind Speed 25 mph    
Max Gust Speed 37 mph    
Visibility 10 miles    
Events Rain    
Averages and records for this station are not official NWS values.
T = Trace of Precipitation, MM = Missing Value Source: NWS Daily Summary

Daily Weather History Graph

Daily Weather History Graph

Search for Another Location

Airport:

Trip Planner

Search our weather history database for the weather conditions in past years. The results will help you decide how hot, cold, wet, or windy it might be!

Date:

Astronomy

Mar. 28, 2014 Rise Set
Actual Time 6:43 AM MDT 7:13 PM MDT
Civil Twilight 6:15 AM MDT 7:41 PM MDT
Nautical Twilight 5:43 AM MDT 8:13 PM MDT
Astronomical Twilight 5:10 AM MDT 8:46 PM MDT
Moon 5:16 AM MDT (3/28) 5:12 PM MDT (3/28)
Length of Visible Light 13h 25m
Length of Day
12h 30m
Waning Crescent, 6% of the Moon is Illuminated
Mar 28
Waning Crescent
Mar 30
New
Apr 7
First Quarter
Apr 15
Full
Apr 22
Last Quarter

Hourly Weather History & Observations

Time (MDT) Temp. Windchill Dew Point Humidity Pressure Visibility Wind Dir Wind Speed Gust Speed Precip Events Conditions
12:10 AM 35.6 °F 30.7 °F 35.6 °F 100% 29.85 in 10.0 mi ESE 5.8 mph - N/A   Scattered Clouds
12:30 AM 37.4 °F 30.3 °F 35.6 °F 93% 29.91 in 7.0 mi West 10.4 mph - N/A   Mostly Cloudy
12:50 AM 37.4 °F 32.8 °F 35.6 °F 93% 29.87 in 5.0 mi SE 5.8 mph - N/A Rain Light Rain
1:10 AM 37.4 °F 31.4 °F 35.6 °F 93% 29.88 in 10.0 mi South 8.1 mph - N/A   Overcast
1:30 AM 39.2 °F 31.2 °F 35.6 °F 87% 29.85 in 10.0 mi SSW 13.8 mph 19.6 mph N/A   Overcast
1:50 AM 39.2 °F 32.5 °F 35.6 °F 87% 29.85 in 10.0 mi SW 10.4 mph - N/A   Overcast
2:10 AM 39.2 °F 32.0 °F 35.6 °F 87% 29.84 in 10.0 mi South 11.5 mph - N/A   Overcast
2:30 AM 39.2 °F 33.6 °F 35.6 °F 87% 29.84 in 10.0 mi SSW 8.1 mph - N/A   Mostly Cloudy
2:50 AM 39.2 °F 32.5 °F 35.6 °F 87% 29.84 in 10.0 mi SSW 10.4 mph - N/A   Overcast
3:05 AM 39.2 °F 34.2 °F 35.6 °F 87% 29.84 in 10.0 mi SSW 6.9 mph - N/A   Overcast
3:30 AM 39.2 °F 37.0 °F 35.6 °F 87% 29.84 in 10.0 mi SW 3.5 mph - N/A   Overcast
3:50 AM 37.4 °F 32.8 °F 35.6 °F 93% 29.84 in 10.0 mi SSW 5.8 mph - N/A   Mostly Cloudy
4:10 AM 39.2 °F 32.5 °F 35.6 °F 87% 29.84 in 10.0 mi WSW 10.4 mph - N/A   Scattered Clouds
4:30 AM 41.0 °F 33.5 °F 35.6 °F 81% 29.85 in 10.0 mi SW 13.8 mph - N/A   Clear
4:50 AM 39.2 °F 32.0 °F 35.6 °F 87% 29.86 in 10.0 mi SW 11.5 mph - N/A   Clear
5:10 AM 37.4 °F 30.8 °F 35.6 °F 93% 29.87 in 10.0 mi SW 9.2 mph - N/A   Clear
5:30 AM 37.4 °F 30.8 °F 35.6 °F 93% 29.87 in 10.0 mi SW 9.2 mph - N/A   Clear
5:50 AM 35.6 °F 28.6 °F 33.8 °F 93% 29.89 in 10.0 mi SW 9.2 mph - N/A   Clear
6:10 AM 35.6 °F 30.7 °F 33.8 °F 93% 29.90 in 10.0 mi WSW 5.8 mph - N/A   Clear
6:30 AM 33.8 °F 26.4 °F 33.8 °F 100% 29.90 in 10.0 mi West 9.2 mph - N/A   Clear
6:50 AM 35.6 °F 28.6 °F 32.0 °F 87% 29.91 in 10.0 mi West 9.2 mph - N/A   Clear
7:10 AM 35.6 °F 29.2 °F 32.0 °F 87% 29.93 in 10.0 mi West 8.1 mph - N/A   Clear
7:30 AM 35.6 °F 29.9 °F 33.8 °F 93% 29.94 in 10.0 mi West 6.9 mph - N/A   Clear
7:50 AM 37.4 °F 32.8 °F 35.6 °F 93% 29.95 in 10.0 mi WSW 5.8 mph - N/A   Clear
8:10 AM 41.0 °F 36.4 °F 35.6 °F 81% 29.95 in 10.0 mi WSW 6.9 mph - N/A   Clear
8:30 AM 42.8 °F 39.3 °F 35.6 °F 76% 29.95 in 10.0 mi SW 5.8 mph - N/A   Clear
8:50 AM 44.6 °F 39.7 °F 33.8 °F 66% 29.95 in 10.0 mi WSW 9.2 mph - N/A   Clear
9:10 AM 46.4 °F 41.9 °F 32.0 °F 57% 29.96 in 10.0 mi WSW 9.2 mph - N/A   Clear
9:30 AM 50.0 °F - 30.2 °F 47% 29.96 in 10.0 mi West 10.4 mph - N/A   Clear
9:50 AM 50.0 °F - 28.4 °F 43% 29.98 in 10.0 mi WNW 8.1 mph - N/A   Clear
10:10 AM 51.8 °F - 30.2 °F 44% 29.98 in 10.0 mi WNW 11.5 mph 17.3 mph N/A   Clear
10:30 AM 51.8 °F - 28.4 °F 41% 29.99 in 10.0 mi NW 10.4 mph 19.6 mph N/A   Clear
10:50 AM 53.6 °F - 28.4 °F 38% 29.99 in - NW 21.9 mph - N/A   Unknown
11:10 AM 53.6 °F - 28.4 °F 38% 29.99 in 10.0 mi NW 24.2 mph 31.1 mph N/A   Clear
11:30 AM 53.6 °F - 28.4 °F 38% 29.99 in 10.0 mi NNW 25.3 mph 32.2 mph N/A   Scattered Clouds
11:50 AM 55.4 °F - 28.4 °F 36% 29.99 in 10.0 mi NNW 19.6 mph 28.8 mph N/A   Mostly Cloudy
12:10 PM 53.6 °F - 30.2 °F 41% 29.99 in 10.0 mi NNW 19.6 mph 34.5 mph N/A   Overcast
12:30 PM 53.6 °F - 26.6 °F 35% 29.99 in 10.0 mi NNW 23.0 mph 36.8 mph N/A   Mostly Cloudy
12:50 PM 53.6 °F - 28.4 °F 38% 30.00 in 10.0 mi North 23.0 mph 31.1 mph N/A   Mostly Cloudy
1:10 PM 53.6 °F - 26.6 °F 35% 30.00 in 10.0 mi NNW 13.8 mph 20.7 mph N/A   Mostly Cloudy
1:30 PM 55.4 °F - 26.6 °F 33% 30.00 in 10.0 mi NNW 17.3 mph 23.0 mph N/A   Mostly Cloudy
1:45 PM 55.4 °F - 26.6 °F 33% 30.00 in 10.0 mi North 17.3 mph 26.5 mph N/A   Mostly Cloudy
2:10 PM 53.6 °F - 24.8 °F 33% 30.00 in 10.0 mi NNW 18.4 mph 26.5 mph N/A   Mostly Cloudy
2:30 PM 55.4 °F - 26.6 °F 33% 30.00 in 10.0 mi North 19.6 mph 25.3 mph N/A   Mostly Cloudy
2:50 PM 57.2 °F - 28.4 °F 33% 30.01 in 10.0 mi NNW 18.4 mph 24.2 mph N/A   Scattered Clouds
3:10 PM 53.6 °F - 28.4 °F 38% 30.01 in 10.0 mi North 17.3 mph 25.3 mph N/A   Mostly Cloudy
3:30 PM 55.4 °F - 26.6 °F 33% 30.01 in 10.0 mi North 20.7 mph 25.3 mph N/A   Scattered Clouds
3:50 PM 55.4 °F - 26.6 °F 33% 30.02 in 10.0 mi North 17.3 mph 26.5 mph N/A   Clear
4:10 PM 57.2 °F - 26.6 °F 31% 30.03 in 10.0 mi NNW 19.6 mph 27.6 mph N/A   Scattered Clouds
4:30 PM 53.6 °F - 26.6 °F 35% 30.04 in 10.0 mi North 18.4 mph 25.3 mph N/A   Scattered Clouds
4:50 PM 53.6 °F - 26.6 °F 35% 30.05 in 10.0 mi NNW 17.3 mph 25.3 mph N/A   Scattered Clouds
5:10 PM 53.6 °F - 26.6 °F 35% 30.06 in 10.0 mi North 12.7 mph - N/A   Mostly Cloudy
5:30 PM 51.8 °F - 30.2 °F 44% 30.07 in 10.0 mi North 13.8 mph - N/A   Mostly Cloudy
5:50 PM 53.6 °F - 30.2 °F 41% 30.07 in 10.0 mi North 9.2 mph - N/A   Scattered Clouds
6:10 PM 51.8 °F - 28.4 °F 41% 30.08 in 10.0 mi NNW 8.1 mph - N/A   Clear
6:30 PM 51.8 °F - 28.4 °F 41% 30.08 in 10.0 mi NNW 9.2 mph - N/A   Clear
6:50 PM 50.0 °F - 30.2 °F 47% 30.09 in 10.0 mi North 5.8 mph - N/A   Clear
7:10 PM 46.4 °F 42.4 °F 30.2 °F 53% 30.11 in 10.0 mi North 8.1 mph - N/A   Clear
7:30 PM 42.8 °F 39.3 °F 32.0 °F 66% 30.11 in 10.0 mi North 5.8 mph - N/A   Clear
7:45 PM 41.0 °F 37.1 °F 32.0 °F 70% 30.12 in 10.0 mi North 5.8 mph - N/A   Clear
8:10 PM 41.0 °F - 32.0 °F 70% 30.12 in 10.0 mi Calm Calm - N/A   Clear
8:30 PM 39.2 °F - 32.0 °F 75% 30.13 in 10.0 mi Calm Calm - N/A   Clear
8:50 PM 37.4 °F - 30.2 °F 75% 30.14 in 10.0 mi Calm Calm - N/A   Clear
9:10 PM 35.6 °F 32.8 °F 30.2 °F 81% 30.15 in 10.0 mi SSW 3.5 mph - N/A   Clear
9:30 PM 35.6 °F 31.7 °F 30.2 °F 81% 30.15 in 10.0 mi WSW 4.6 mph - N/A   Clear
9:50 PM 32.0 °F 28.7 °F 30.2 °F 93% 30.16 in 10.0 mi WSW 3.5 mph - N/A   Clear
10:10 PM 32.0 °F 28.7 °F 30.2 °F 93% 30.16 in 10.0 mi WSW 3.5 mph - N/A   Clear
10:30 PM 32.0 °F 28.7 °F 30.2 °F 93% 30.17 in 10.0 mi WSW 3.5 mph - N/A   Clear
10:50 PM 32.0 °F 28.7 °F 30.2 °F 93% 30.17 in 10.0 mi WSW 3.5 mph - N/A   Clear
11:10 PM 32.0 °F 26.4 °F 28.4 °F 87% 30.17 in 10.0 mi SW 5.8 mph - N/A   Clear
11:30 PM 32.0 °F - 30.2 °F 93% 30.17 in 10.0 mi Calm Calm - N/A   Clear
11:45 PM 32.0 °F - 30.2 °F 93% 30.17 in 10.0 mi Calm Calm - N/A   Clear